Вернуться в каталог

STARLINK-4095

АктивенСвязьVLEO
NORAD 53170·PAYLOAD·🇺🇸 United States

Запущен Jul 17, 2022 с Cape Canaveral Space Force Station

Loading…

Ближайшие Пролёты (ближайшие 24 часа)

TLE

СвежийSource: CelesTrak SupGP

Эпоха: Sep 15, 2026, 01:48 UTC

1 53170C 22083AQ  26258.07548611  .00640380  00000+0  30320-1 0  2583
2 53170  53.1597  28.0145 0001324  86.5640 271.4802 15.18506724    11

Отслеживайте STARLINK-4095 в реальном времени с AllMySat

Download on the App Store